CZ-6A DEB

Satellite information

Favourite Embed

Satellite Type and Status

DEBRISIN ORBIT

Key statistics

Satellite CZ-6A DEB at a glance.

Uptime

968

Days in orbit

Revolutions

≈ 14.6

Per day

Orbit

SSO

Sun Synchronous Orbit

Inclination

98.6

Latest

Satellite identification and parameters

Extended collection of information and parameters for CZ-6A DEB.

Object identification

Identified? True

Debris? True

Object name: CZ-6A DEB

International designator: 2022-151QD

Object number (NORAD): 54892

Object ID (CCSDS): 54892

Country: PEOPLES REPUBLIC OF CHINA (PRC)

Current information (Y/N): Y

RCS size: SMALL

Orbital parameters

Period: 98.605 minutes

Inclination: 98.645 deg

SMA: 7070.133 km

Apoapsis: 748.459 km

Periapsis: 635.536 km

RAAN: 228.1624 deg

Eccentricy: 0.0079859

Argument of periapsis: 287.0425 deg

Mean anomaly: 72.2036 deg

Mean motion: 14.60364976 rev/day

Mean motion (dot): 0.00006345 rev/day2

B* drag term: 0.0012644 1/REarth

Two-line elements (TLE)

Creation date: July 5, 2025, 3:06 p.m.

Reference frame: TEME

Reference center: EARTH

Epoch: July 5, 2025, 1:24 p.m. UTC

TLE line 0: 0 CZ-6A DEB

TLE line 1: 1 54892U 22151QD 25186.55877764 .00006345 00000-0 12644-2 0 9997

TLE line 2: 2 54892 98.6450 228.1624 0079859 287.0425 72.2036 14.60364976136717

Live tracking on map

Real-time ground track for satellite CZ-6A DEB.

In-orbit conjunctions

A list of the most updated potential collisions computed for object CZ-6A DEB.

Target Orbit TCA Probability of collision Miss distance Type
SOHLA-1 (MAIDO-1) SSO 2025-05-19 16:54:45 0.0002764809 904.0 (m) PAYLOAD
COSMOS 1867 COOLANT LEO 2024-08-17 14:22:59 0.0002432013 91.0 (m) DEBRIS

Associated space launch

Chinese satellite reported for atmospheric/ocean/environmental/spatial parameter research purposes, details TBD.

CZ-6A DEB was lifted into orbit during the mission ‘Long March 6A | Yunhai 3’, on board a Long March 6A space rocket.

The launch took place on Nov. 11, 2022, 10:52 p.m. from Launch Complex 9A.

For more information about the launch, click the button.

Launch to space Long March 6A | Yunhai 3
Long March 6A | Yunhai 3

Agency: N/A

Status: Launch Successful

Launch date: Nov. 11, 2022, 10:52 p.m. UTC

Rocket: Long March 6A

Launch pad: Launch Complex 9A

Location: Taiyuan Satellite Launch Center, People's Republic of China

...

Latest news about this satellite

There are no fresh news available about this satellite. Check back as we update our databases every day.


Newsletter sign-up

Weekly statistics, charts and insights to help you stay on top of the space industry.